Weather Roundup
Issued by NWS

Home | Current Version | Previous Version | Graphics & Text | Print | Product List | Glossary Off
Versions: 1 2 3 4 5 6 7 8 9 10 11 12 13 14 15 16 17 18 19 20 21 22 23 24 25 26 27 28 29 30 31 32 33 34 35 36 37 38 39 40 41 42 43 44 45 46 47 48 49 50

000
NZUS93 KARX 030959
HRRWXR

CURRENT HOURLY OBSERVATIONS ACROSS
MUCH OF THE UPPER MISSISSIPPI VALLEY
NATIONAL WEATHER SERVICE LA CROSSE WI
500 AM CDT FRI JUL 03 2015


...SOUTHEAST MINNESOTA...


CITY           SKY/WX    TMP DP  RH WIND       PRES   REMARKS
ROCHESTER      CLEAR     54  52  93 SW6       30.02R
ROCHESTER/MAYO FAIR      57  55  90 CALM      30.01S
WINONA         CLEAR     55  55 100 CALM      30.00S
AUSTIN         CLEAR     55  54  94 CALM      30.01R
ALBERT LEA     CLEAR     55  54  94 CALM      30.01S
DODGE CENTER   PTCLDY    54  52  94 W5        30.01R
PRESTON        PTCLDY    54  50  88 SW3       30.01S
OWATONNA       CLEAR     55  52  88 CALM      30.00S
FARIBAULT      CLEAR     54  54 100 S3        30.00S
$$

...ELSEWHERE IN MINNESOTA...


CITY           SKY/WX    TMP DP  RH WIND       PRES   REMARKS
MINNEAPOLIS    CLEAR     62  56  80 CALM      29.98S
INTNL FALLS    CLOUDY    62  56  80 W6        29.85S
DULUTH         MOCLDY    63  53  70 W10       29.92R
RED WING       CLEAR     54  52  94 CALM      29.98S
REDWOOD FALLS  CLEAR     54  49  83 SW7       29.98F
MANKATO        CLEAR     57  52  82 CALM      30.00S
WORTHINGTON    CLEAR     54  48  82 SW3       30.02S
FAIRMONT       CLEAR     55  46  71 CALM      30.00S
$$

...SOUTHWEST WISCONSIN...


CITY           SKY/WX    TMP DP  RH WIND       PRES   REMARKS
LA CROSSE      PTCLDY    55  53  93 E5        30.00R
PRAIRIE DU CHI PTCLDY    53  52  95 CALM      30.00S FOG
BOSCOBEL       FOG       55  54  96 CALM      30.01R VSB 1/4
LONE ROCK      CLOUDY    50  48  93 CALM      30.01S FOG
PLATTEVILLE    PTCLDY    54  51  91 E7        30.00S
FORT MC COY    PTCLDY    45  44  96 CALM      30.02R
CAMP DOUGLAS   PTCLDY    45  45 100 SE2       30.00S
VIROQUA        FAIR      54  52  93 CALM      30.01S
WIS DELLS      PTCLDY    50  47  90 CALM      30.00S
$$

...ELSEWHERE IN WISCONSIN...


CITY           SKY/WX    TMP DP  RH WIND       PRES   REMARKS
MILWAUKEE      PTCLDY    55  47  74 NW3       30.00R
MADISON        PTCLDY    50  47  89 CALM      30.00R
GREEN BAY      CLEAR     51  48  89 CALM      30.00S
EAU CLAIRE     PTCLDY    55  54  94 CALM      29.98S FOG
BLACK RVR FLS  PTSUNNY   44  44 100 CALM      30.00S FOG
MEDFORD        CLEAR     53  49  85 S3        30.00F
WAUSAU         CLEAR     52  49  89 E3        30.00R
WIS RAPIDS     CLEAR     50  46  86 CALM      30.02S
MARSHFIELD     CLEAR     54  48  80 CALM      30.01S
RICE LAKE      CLEAR     53  52  95 CALM      30.00S FOG
$$

...NORTHEAST IOWA...


CITY           SKY/WX    TMP DP  RH WIND       PRES   REMARKS
DECORAH          N/A    N/A N/A N/A MISG        N/A
MASON CITY     CLEAR     53  51  93 W3        30.02S
CHARLES CITY   PTCLDY    54  54 100 N5        30.01S
OELWEIN          N/A     54  52  94 NE5       30.00S
$$

...ELSEWHERE IN IOWA...


CITY           SKY/WX    TMP DP  RH WIND       PRES   REMARKS
DES MOINES     CLOUDY    60  54  80 N3        29.97F
IOWA CITY      MOCLDY    60  55  83 NE5       29.97S
FORT DODGE     CLEAR     50  48  93 CALM      30.01S
$$

...NORTHERN ILLINOIS...


CITY           SKY/WX    TMP DP  RH WIND       PRES   REMARKS
CHICAGO-OHARE  CLOUDY    56  51  84 N5        29.96S
CHICAGO-MIDWAY CLOUDY    62  55  77 N5        29.95S
MOLINE         CLOUDY    60  54  80 E6        29.96S
ROCKFORD       CLOUDY    57  48  72 N5        29.99S
PEORIA         LGT RAIN  63  56  78 NE8       29.92F
$$

NOTE: "FAIR" INDICATES FEW OR NO CLOUDS BELOW 12,000 FEET WITH NO
SIGNIFICANT WEATHER AND/OR OBSTRUCTIONS TO VISIBILITY. WIND
SPEEDS ARE IN MILES-PER-HOUR.



USA.gov is the U.S. government's official web portal to all federal, state and local government web resources and services.